TimeIST,TemperatureF,Dew PointF,Humidity,Sea Level PressureIn,VisibilityMPH,Wind Direction,Wind SpeedMPH,Gust SpeedMPH,PrecipitationIn,Events,Conditions,WindDirDegrees,DateUTC
12:10 AM,69.8,55.4,60,29.89,3.1,Calm,Calm,-,N/A,,Haze,0,2012-10-31 18:40:00
2:10 AM,69.8,57.2,64,29.86,3.1,Calm,Calm,-,N/A,,Haze,0,2012-10-31 20:40:00
2:30 AM,64,60,81,29.85,2,Calm,Calm,,,,Haze,,2012-10-31 21:00:00
3:10 AM,69.8,55.4,60,29.86,3.1,Calm,Calm,-,N/A,,Haze,0,2012-10-31 21:40:00
4:10 AM,68.0,55.4,64,29.86,3.1,Calm,Calm,-,N/A,,Haze,0,2012-10-31 22:40:00
5:10 AM,68.0,55.4,64,29.86,3.1,Calm,Calm,-,N/A,,Haze,0,2012-10-31 23:40:00
5:30 AM,62,60,90,29.85,2,Calm,Calm,,,,Haze,,2012-11-01 00:00:00
6:10 AM,68.0,55.4,64,29.89,3.1,Calm,Calm,-,N/A,,Haze,0,2012-11-01 00:40:00
7:10 AM,68.0,55.4,64,29.89,3.1,Calm,Calm,-,N/A,,Haze,0,2012-11-01 01:40:00
8:10 AM,73.4,59.0,61,29.89,3.1,NNE,4.6,-,N/A,,Haze,30,2012-11-01 02:40:00
8:30 AM,74,61,54,29.88,2,NE,6.9,,,,Haze,50,2012-11-01 03:00:00
9:10 AM,78.8,60.8,54,29.92,-9999.0,ENE,9.2,-,N/A,,Haze,70,2012-11-01 03:40:00
11:10 AM,80.6,64.4,58,29.89,3.7,ENE,6.9,-,N/A,,Partly Cloudy,70,2012-11-01 05:40:00
11:30 AM,82,66,50,29.83,2,NE,6.9,,,,Scattered Clouds,50,2012-11-01 06:00:00
1:10 PM,86.0,66.2,51,29.86,3.7,East,6.9,-,N/A,,Partly Cloudy,90,2012-11-01 07:40:00
2:10 PM,87.8,68.0,52,29.80,3.7,ENE,6.9,-,N/A,,Scattered Clouds,70,2012-11-01 08:40:00
2:30 PM,85,68,48,29.76,2,East,5.8,,,,Partly Cloudy,90,2012-11-01 09:00:00
4:10 PM,86.0,66.2,51,29.80,3.7,East,4.6,-,N/A,,Mostly Cloudy,90,2012-11-01 10:40:00
5:10 PM,84.2,66.2,55,29.80,3.1,ENE,3.5,-,N/A,,Haze,70,2012-11-01 11:40:00
5:30 PM,81,67,55,29.77,2,ENE,2.3,,,,Haze,70,2012-11-01 12:00:00
6:10 PM,82.4,66.2,58,29.80,3.1,Calm,Calm,-,N/A,,Haze,0,2012-11-01 12:40:00
7:10 PM,80.6,66.2,61,29.83,3.1,Calm,Calm,-,N/A,,Haze,0,2012-11-01 13:40:00
8:10 PM,80.6,64.4,58,29.86,3.1,ENE,2.3,-,N/A,,Haze,70,2012-11-01 14:40:00
8:30 PM,80,67,57,29.81,2,ENE,2.3,,,,Haze,70,2012-11-01 15:00:00
9:10 PM,80.6,64.4,58,-9999,3.1,East,3.5,-,N/A,,Haze,80,2012-11-01 15:40:00
10:10 PM,80.6,64.4,58,29.86,3.1,East,4.6,-,N/A,,Haze,80,2012-11-01 16:40:00
11:10 PM,78.8,64.4,61,29.86,3.1,ENE,4.6,-,N/A,,Haze,60,2012-11-01 17:40:00
11:30 PM,78,67,61,29.81,2,ENE,4.6,,,,Haze,70,2012-11-01 18:00:00